, MS

(GMT )
Nakika

Weather History for KIKT - December, 2013

Change the Weather History Date:

Monday, December 30, 2013

  Actual Average Record
Temperature  
Mean Temperature 65 °F -  
Max Temperature 68 °F - - ()
Min Temperature 62 °F - - ()
Growing Degree Days 15 (Base 50)    
Moisture  
Dew Point 56 °F    
Average Humidity 71    
Maximum Humidity 77    
Minimum Humidity 68    
Precipitation  
Precipitation 0.00 in - - ()
Sea Level Pressure  
Sea Level Pressure 30.16 in    
Wind  
Wind Speed 8 mph (ENE)    
Max Wind Speed 20 mph    
Max Gust Speed 22 mph    
Visibility 10 miles    
Events      
T = Trace of Precipitation, MM = Missing Value Source: NWS Daily Summary

Daily Weather History Graph

Daily Weather History Graph

Search for Another Location

Airport or City:

Trip Planner

Search our weather history database for the weather conditions in past years. The results will help you decide how hot, cold, wet, or windy it might be!

Date:

Astronomy

Dec. 30, 2013 Rise Set
Actual Time 6:45 AM CST 5:06 PM CST
Civil Twilight 6:19 AM CST 5:32 PM CST
Nautical Twilight 5:49 AM CST 6:01 PM CST
Astronomical Twilight 5:21 AM CST 6:30 PM CST
Moon 4:38 AM CST (12/30) 3:36 PM CST (12/30)
Length of Visible Light 11h 13m
Length of Day
10h 21m
Waning Crescent, 4% of the Moon is Illuminated
Dec 30
Waning Crescent
Jan 1
New
Jan 7
First Quarter
Jan 15
Full
Jan 23
Last Quarter

Hourly Weather History & Observations

Time (CST) Temp. Dew Point Humidity Pressure Visibility Wind Dir Wind Speed Gust Speed Precip Events Conditions
12:15 AM 62.6 °F 53.6 °F 72% 30.09 in 10.0 mi NE 6.9 mph - N/A   Clear
12:35 AM 62.6 °F 53.6 °F 72% 30.09 in 10.0 mi NE 5.8 mph - N/A   Clear
12:55 AM 62.6 °F 53.6 °F 72% 30.09 in 10.0 mi NNE 8.1 mph - N/A   Clear
1:15 AM 62.6 °F 53.6 °F 72% 30.10 in 10.0 mi NE 5.8 mph - N/A   Clear
1:35 AM 62.6 °F 53.6 °F 72% 30.10 in 10.0 mi NNE 5.8 mph - N/A   Clear
1:55 AM 62.6 °F 53.6 °F 72% 30.09 in 10.0 mi NE 5.8 mph - N/A   Clear
2:15 AM 62.6 °F 53.6 °F 72% 30.09 in 10.0 mi NE 5.8 mph - N/A   Clear
2:35 AM 62.6 °F 53.6 °F 72% 30.10 in 10.0 mi NNE 8.1 mph - N/A   Partly Cloudy
2:55 AM 62.6 °F 53.6 °F 72% 30.09 in 10.0 mi NNE 9.2 mph - N/A   Partly Cloudy
3:15 AM 62.6 °F 53.6 °F 72% 30.10 in 10.0 mi NE 6.9 mph 12.7 mph N/A   Clear
3:35 AM 62.6 °F 53.6 °F 72% 30.11 in 10.0 mi NE 8.1 mph - N/A   Clear
3:55 AM 62.6 °F 53.6 °F 72% 30.10 in 10.0 mi NE 9.2 mph - N/A   Clear
4:15 AM 62.6 °F 51.8 °F 68% 30.09 in 10.0 mi NE 8.1 mph 13.8 mph N/A   Clear
4:35 AM 64.4 °F 53.6 °F 68% 30.08 in 10.0 mi ENE 11.5 mph 17.3 mph N/A   Clear
4:55 AM 64.4 °F 53.6 °F 68% 30.09 in 10.0 mi NE 10.4 mph 18.4 mph N/A   Clear
5:15 AM 64.4 °F 53.6 °F 68% 30.09 in 10.0 mi ENE 17.3 mph - N/A   Partly Cloudy
5:35 AM 64.4 °F 53.6 °F 68% 30.08 in 10.0 mi ENE 19.6 mph - N/A   Scattered Clouds
5:55 AM 64.4 °F 55.4 °F 73% 30.10 in 10.0 mi East 15.0 mph - N/A   Scattered Clouds
6:15 AM 64.4 °F 55.4 °F 73% 30.11 in 10.0 mi ENE 11.5 mph 21.9 mph N/A   Mostly Cloudy
6:35 AM 64.4 °F 55.4 °F 73% 30.11 in 10.0 mi ENE 16.1 mph - N/A   Mostly Cloudy
6:55 AM 64.4 °F 55.4 °F 73% 30.12 in 10.0 mi ENE 16.1 mph - N/A   Mostly Cloudy
7:15 AM 64.4 °F 55.4 °F 73% 30.13 in 10.0 mi East 15.0 mph - N/A   Mostly Cloudy
7:35 AM 64.4 °F 55.4 °F 73% 30.14 in 10.0 mi East 16.1 mph - N/A   Mostly Cloudy
7:55 AM 64.4 °F 55.4 °F 73% 30.16 in 10.0 mi East 15.0 mph - N/A   Mostly Cloudy
8:15 AM 64.4 °F 55.4 °F 73% 30.17 in 10.0 mi East 15.0 mph - N/A   Mostly Cloudy
8:35 AM 64.4 °F 57.2 °F 77% 30.17 in 10.0 mi East 12.7 mph - N/A   Overcast
8:55 AM 64.4 °F 55.4 °F 73% 30.17 in 10.0 mi ENE 15.0 mph - N/A   Mostly Cloudy
9:15 AM 66.2 °F 55.4 °F 68% 30.19 in 10.0 mi ENE 10.4 mph 16.1 mph N/A   Mostly Cloudy
9:35 AM 66.2 °F 55.4 °F 68% 30.20 in 10.0 mi East 10.4 mph - N/A   Partly Cloudy
9:55 AM 66.2 °F 55.4 °F 68% 30.20 in 10.0 mi East 9.2 mph - N/A   Partly Cloudy
10:15 AM 66.2 °F 55.4 °F 68% 30.20 in 10.0 mi East 10.4 mph - N/A   Scattered Clouds
10:35 AM 66.2 °F 57.2 °F 73% 30.20 in 10.0 mi East 9.2 mph - N/A   Partly Cloudy
10:55 AM 66.2 °F 57.2 °F 73% 30.19 in 10.0 mi East 11.5 mph - N/A   Clear
11:15 AM 66.2 °F 55.4 °F 68% 30.18 in 10.0 mi ENE 11.5 mph - N/A   Partly Cloudy
11:35 AM 66.2 °F 57.2 °F 73% 30.18 in 10.0 mi East 12.7 mph - N/A   Scattered Clouds
11:55 AM 66.2 °F 55.4 °F 68% 30.19 in 10.0 mi ENE 8.1 mph - N/A   Mostly Cloudy
12:15 PM 66.2 °F 55.4 °F 68% 30.17 in 10.0 mi East 8.1 mph - N/A   Partly Cloudy
12:35 PM 66.2 °F 55.4 °F 68% 30.16 in 10.0 mi East 9.2 mph - N/A   Clear
12:55 PM 66.2 °F 57.2 °F 73% 30.16 in 10.0 mi East 9.2 mph - N/A   Partly Cloudy
1:15 PM 66.2 °F 57.2 °F 73% 30.16 in 10.0 mi East 8.1 mph - N/A   Scattered Clouds
1:35 PM 66.2 °F 55.4 °F 68% 30.15 in 10.0 mi East 8.1 mph - N/A   Clear
1:55 PM 66.2 °F 55.4 °F 68% 30.15 in 10.0 mi East 8.1 mph - N/A   Mostly Cloudy
2:15 PM 66.2 °F 55.4 °F 68% 30.15 in 10.0 mi ENE 8.1 mph - N/A   Scattered Clouds
2:35 PM 66.2 °F 57.2 °F 73% 30.14 in 10.0 mi ENE 9.2 mph - N/A   Scattered Clouds
2:55 PM 66.2 °F 55.4 °F 68% 30.15 in 10.0 mi ESE 9.2 mph - N/A   Scattered Clouds
3:15 PM 66.2 °F 57.2 °F 73% 30.14 in 10.0 mi East 9.2 mph - N/A   Partly Cloudy
3:35 PM 66.2 °F 57.2 °F 73% 30.14 in - East 10.4 mph - N/A   Partly Cloudy
3:55 PM 66.2 °F 57.2 °F 73% 30.15 in 10.0 mi East 6.9 mph - N/A   Mostly Cloudy
4:15 PM 66.2 °F 57.2 °F 73% 30.16 in 10.0 mi ESE 8.1 mph - N/A   Overcast
4:35 PM 66.2 °F 57.2 °F 73% 30.14 in 10.0 mi SE 10.4 mph - N/A   Overcast
4:55 PM 66.2 °F 55.4 °F 68% 30.16 in 10.0 mi ESE 8.1 mph - N/A   Overcast
5:15 PM 66.2 °F 55.4 °F 68% 30.15 in 10.0 mi ESE 10.4 mph - N/A   Overcast
5:35 PM 66.2 °F 55.4 °F 68% 30.16 in 10.0 mi SE 9.2 mph - N/A   Overcast
5:55 PM 66.2 °F 57.2 °F 73% 30.16 in 10.0 mi SSE 6.9 mph - N/A   Mostly Cloudy
6:15 PM 68.0 °F 57.2 °F 68% 30.18 in 10.0 mi SE 5.8 mph - N/A   Overcast
6:35 PM 66.2 °F 57.2 °F 73% 30.19 in 10.0 mi SSE 4.6 mph - N/A   Overcast
6:55 PM 68.0 °F 57.2 °F 68% 30.20 in 10.0 mi Calm Calm - N/A   Overcast
7:15 PM 68.0 °F 57.2 °F 68% 30.20 in 10.0 mi Variable 4.6 mph - N/A   Overcast
7:35 PM 68.0 °F 57.2 °F 68% 30.21 in 10.0 mi Calm Calm - N/A   Overcast
7:55 PM 68.0 °F 57.2 °F 68% 30.22 in 10.0 mi Calm Calm - N/A   Overcast
8:15 PM 68.0 °F 57.2 °F 68% 30.22 in 10.0 mi Calm Calm - N/A   Overcast
8:35 PM 68.0 °F 57.2 °F 68% 30.21 in 10.0 mi NNE 4.6 mph - N/A   Overcast
8:55 PM 68.0 °F 57.2 °F 68% 30.22 in 10.0 mi Calm Calm - N/A   Overcast
9:15 PM 68.0 °F 57.2 °F 68% 30.22 in 10.0 mi Calm Calm - N/A   Overcast
9:35 PM 68.0 °F 57.2 °F 68% 30.22 in 10.0 mi Calm Calm - N/A   Overcast
9:55 PM 68.0 °F 57.2 °F 68% 30.23 in 10.0 mi NNE 5.8 mph - N/A   Overcast
10:15 PM 66.2 °F 57.2 °F 73% 30.21 in 9.0 mi East 5.8 mph - N/A   Overcast
10:35 PM 66.2 °F 57.2 °F 73% 30.21 in 10.0 mi Variable 4.6 mph - N/A   Overcast
10:55 PM 68.0 °F 57.2 °F 68% 30.24 in 10.0 mi NW 4.6 mph - N/A   Mostly Cloudy
11:15 PM 68.0 °F 57.2 °F 68% 30.24 in 10.0 mi Calm Calm - N/A   Overcast
11:35 PM 68.0 °F 57.2 °F 68% 30.24 in 10.0 mi Calm Calm - N/A   Mostly Cloudy
11:55 PM 68.0 °F 59.0 °F 73% 30.24 in 10.0 mi Calm Calm - N/A   Overcast